Overview Statistics Trail Chart Weather Telemetry Raw packets
 

This is the latest recevied weather packets stored in our database for station/object DJ2KUA-6. If no packets are shown the sender has not sent any weather packets the latest 10 day(s).

<< 24 25 26 27 28 >>
Time Temp. Humidity Pressure Rain* Wind** Luminosity Snow
1787834018 31.11° C 50% 1063 hPa 0 mm - - -
1787832879 31.11° C 50% 1064 hPa 0 mm - - -
1787831739 31.67° C 51% 1064 hPa 0 mm - - -
1787830599 30.56° C 54% 1064 hPa 0 mm - - -
1787829460 30° C 56% 1064 hPa 0 mm - - -
1787828319 28.89° C 58% 1064 hPa 0 mm - - -
1787827179 28.33° C 59% 1064 hPa 0 mm - - -
1787824903 28.33° C 59% 1065 hPa 0 mm - - -
1787823759 27.78° C 60% 1065 hPa 0 mm - - -
1787822618 27.22° C 62% 1065 hPa 0 mm - - -
1787821481 26.67° C 64% 1065 hPa 0 mm - - -
1787821478 26.67° C 64% 1065 hPa 0 mm - - -
1787819199 26.11° C 66% 1065 hPa 0 mm - - -
1787818059 24.44° C 70% 1065 hPa 0 mm - - -
1787816919 23.89° C 71% 1065 hPa 0 mm - - -
1787815779 23.33° C 74% 1065 hPa 0 mm - - -
1787814640 22.22° C 75% 1065 hPa 0 mm - - -
1787813499 21.67° C 77% 1065 hPa 0 mm - - -
1787812359 21.11° C 79% 1065 hPa 0 mm - - -
1787811219 20° C 82% 1065 hPa 0 mm - - -
1787810079 18.89° C 85% 1065 hPa 0 mm - - -
1787808939 17.78° C 85% 1065 hPa 0 mm - - -
1787807799 17.78° C 84% 1065 hPa 0 mm - - -
1787806660 18.33° C 84% 1065 hPa 0 mm - - -
1787805522 18.33° C 85% 1064 hPa 0 mm - - -

* Rain latest hour (hover to see other rain measurements)
** Current wind speed in m/s (hover to see current wind gust speed)